Location: Anglesey
(53.1800°N, 4.2200°W)
Time: 15:14:19
(UTC+00:00)

BlueWalker 3 - Visible Passes

Search period start: 24 February 2024 00:00
Search period end: 05 March 2024 00:00
Orbit: 486 x 500 km, 53.2° (Epoch: 23 February)

Date Brightness Start Highest point End Pass type
(mag) Time Alt. Az. Time Alt. Az. Time Alt. Az.
24 Feb 1.9 18:42:57 10° WSW 18:46:45 82° S 18:49:46 15° E visible
24 Feb 2.5 20:21:16 10° W 20:24:15 53° W 20:24:15 53° W visible
25 Feb 1.9 18:19:09 10° WSW 18:22:56 81° SSE 18:26:44 10° E visible
25 Feb 1.7 19:57:28 10° W 20:01:15 86° SSW 20:01:26 80° ESE visible
25 Feb 5.2 21:35:49 10° W 21:35:55 11° W 21:35:55 11° W visible
26 Feb 1.8 19:33:37 10° W 19:37:25 87° S 19:38:35 43° ESE visible
26 Feb 4.6 21:11:58 10° W 21:13:04 17° W 21:13:04 17° W visible
27 Feb 1.8 19:09:46 10° W 19:13:34 87° S 19:15:45 24° E visible
27 Feb 3.7 20:48:06 10° W 20:50:13 27° WSW 20:50:13 27° WSW visible
28 Feb 1.9 18:45:53 10° W 18:49:41 88° S 18:52:54 14° E visible
28 Feb 2.9 20:24:13 10° W 20:27:23 39° SW 20:27:23 39° SW visible
29 Feb 1.9 18:21:59 10° W 18:25:46 88° SSW 18:29:34 10° E visible
29 Feb 2.6 20:00:19 10° W 20:03:54 42° SSW 20:04:34 38° S visible
01 Mar 2.7 19:36:23 10° W 19:39:59 43° SSW 19:41:46 24° SSE visible
01 Mar 4.9 21:16:05 10° WSW 21:16:15 10° WSW 21:16:15 10° WSW visible
02 Mar 2.8 19:12:25 10° W 19:16:03 44° SSW 19:19:02 14° SE visible
02 Mar 4.6 20:52:01 10° WSW 20:53:31 12° SW 20:53:31 12° SW visible
03 Mar 2.8 18:48:27 10° W 18:52:05 45° SSW 18:55:41 10° SE visible
03 Mar 4.5 20:27:57 10° WSW 20:29:38 13° SW 20:30:50 11° SSW visible
04 Mar 4.6 20:03:53 10° WSW 20:05:39 13° SW 20:07:26 10° SSW visible
